Paynesville, MN

9:46 PM CDT on October 18, 2017 (GMT -0500)
Paynesville

Weather History for KPEX - February, 2012

Change the Weather History Date:

Thursday, February 23, 2012

  Actual Average (KLJF) Record (KLJF)
Temperature  
Mean Temperature 25 °F -  
Max Temperature 31 °F 31 °F 55 °F (1958)
Min Temperature 19 °F 12 °F -13 °F (1966)
Degree Days  
Heating Degree Days 40    
Moisture  
Dew Point 23 °F    
Average Humidity 88    
Maximum Humidity 98    
Minimum Humidity 70    
Precipitation  
Precipitation 0.00 in - - ()
Sea Level Pressure  
Sea Level Pressure 29.52 in    
Wind  
Wind Speed 2 mph (North)    
Max Wind Speed 9 mph    
Max Gust Speed -    
Visibility 7 miles    
Events      
Averages and records for this station are not official NWS values.
T = Trace of Precipitation, MM = Missing Value Source: NWS Daily Summary

Daily Weather History Graph

Daily Weather History Graph

Search for Another Location

Airport or City:

Trip Planner

Search our weather history database for the weather conditions in past years. The results will help you decide how hot, cold, wet, or windy it might be!

Date:

Astronomy

Feb. 23, 2012 Rise Set
Actual Time 7:08 AM CST 5:57 PM CST
Civil Twilight 6:38 AM CST 6:27 PM CST
Nautical Twilight 6:04 AM CST 7:01 PM CST
Astronomical Twilight 5:30 AM CST 7:35 PM CST
Moon 7:27 AM CST (2/23) 8:13 PM CST (2/23)
Length of Visible Light 11h 48m
Length of Day
10h 48m
Waxing Crescent, 3% of the Moon is Illuminated
Feb 23
Waxing Crescent
Feb 29
First Quarter
Mar 8
Full
Mar 14
Last Quarter
Mar 22
New

Hourly Weather History & Observations

Time (CST) Temp. Windchill Dew Point Humidity Pressure Visibility Wind Dir Wind Speed Gust Speed Precip Events Conditions
12:12 AM 21.9 °F - 20.8 °F 96% 29.40 in 5.0 mi Calm Calm - N/A   Scattered Clouds
12:32 AM 22.3 °F - 21.2 °F 96% 29.40 in 5.0 mi Calm Calm - N/A   Clear
12:51 AM 21.4 °F - 20.7 °F 97% 29.43 in 3.0 mi Calm Calm - N/A   Scattered Clouds
1:12 AM 19.2 °F - 18.1 °F 96% 29.44 in 0.8 mi Calm Calm - N/A   Overcast
1:32 AM 19.4 °F - 18.5 °F 96% 29.45 in 2.0 mi Calm Calm - N/A   Overcast
1:52 AM 21.7 °F - 21.0 °F 97% 29.45 in 4.0 mi Calm Calm - N/A   Overcast
2:12 AM 22.6 °F - 21.7 °F 96% 29.46 in 5.0 mi Calm Calm - N/A   Overcast
2:32 AM 24.1 °F - 23.2 °F 96% 29.46 in 10.0 mi Calm Calm - N/A   Mostly Cloudy
2:52 AM 23.7 °F - 22.5 °F 95% 29.45 in 7.0 mi Calm Calm - N/A   Overcast
3:11 AM 22.5 °F - 21.0 °F 94% 29.43 in 5.0 mi Calm Calm - N/A   Scattered Clouds
3:32 AM 21.4 °F - 20.3 °F 96% 29.43 in 7.0 mi Calm Calm - N/A   Clear
3:51 AM 21.9 °F - 21.4 °F 98% 29.44 in 5.0 mi Calm Calm - N/A   Clear
4:12 AM 19.9 °F - 19.0 °F 96% 29.43 in 4.0 mi Calm Calm - N/A   Clear
4:32 AM 20.1 °F - 19.0 °F 96% 29.44 in 5.0 mi Calm Calm - N/A   Clear
4:52 AM 20.7 °F - 19.6 °F 96% 29.44 in 5.0 mi Calm Calm - N/A   Clear
5:12 AM 21.2 °F - 20.3 °F 96% 29.45 in 7.0 mi Calm Calm - N/A   Clear
5:32 AM 20.5 °F - 19.4 °F 96% 29.46 in 7.0 mi Calm Calm - N/A   Clear
5:52 AM 21.9 °F - 20.3 °F 93% 29.46 in 7.0 mi Calm Calm - N/A   Clear
6:12 AM 23.2 °F 18.7 °F 21.7 °F 94% 29.46 in 7.0 mi NE 3.5 mph - N/A   Clear
6:31 AM 23.0 °F - 21.4 °F 94% 29.46 in 7.0 mi Calm Calm - N/A   Clear
6:52 AM 22.1 °F - 20.7 °F 94% 29.47 in 5.0 mi Calm Calm - N/A   Clear
7:11 AM 22.1 °F - 20.8 °F 95% 29.47 in 5.0 mi Calm Calm - N/A   Clear
7:31 AM 22.5 °F 17.8 °F 21.4 °F 96% 29.46 in 4.0 mi NE 3.5 mph - N/A   Clear
7:52 AM 24.3 °F 17.3 °F 22.8 °F 94% 29.47 in 5.0 mi NE 5.8 mph - N/A   Clear
8:11 AM 23.7 °F 19.3 °F 22.1 °F 94% 29.48 in 5.0 mi NNE 3.5 mph - N/A   Clear
8:31 AM 23.9 °F - 22.1 °F 93% 29.50 in 5.0 mi Calm Calm - N/A   Clear
8:52 AM 25.0 °F - 23.2 °F 93% 29.51 in 5.0 mi Calm Calm - N/A   Clear
9:11 AM 26.2 °F 20.7 °F 24.4 °F 93% 29.51 in 5.0 mi North 4.6 mph - N/A   Clear
9:31 AM 26.6 °F 21.2 °F 24.4 °F 92% 29.52 in 7.0 mi NNE 4.6 mph - N/A   Clear
9:52 AM 27.3 °F 22.0 °F 24.8 °F 90% 29.53 in 7.0 mi North 4.6 mph - N/A   Clear
10:11 AM 28.0 °F 22.8 °F 25.0 °F 88% 29.55 in 7.0 mi North 4.6 mph - N/A   Clear
10:32 AM 28.2 °F 24.4 °F 24.8 °F 87% 29.57 in 7.0 mi North 3.5 mph - N/A   Clear
10:52 AM 29.3 °F 23.2 °F 25.5 °F 86% 29.56 in 7.0 mi North 5.8 mph - N/A   Scattered Clouds
11:12 AM 29.3 °F 23.2 °F 25.5 °F 86% 29.57 in 10.0 mi North 5.8 mph - N/A   Scattered Clouds
11:32 AM 29.8 °F 23.0 °F 25.5 °F 84% 29.57 in 10.0 mi North 6.9 mph - N/A   Scattered Clouds
11:51 AM 30.2 °F 22.6 °F 25.7 °F 83% 29.58 in 10.0 mi North 8.1 mph - N/A   Mostly Cloudy
12:12 PM 30.2 °F 22.6 °F 25.3 °F 82% 29.58 in 10.0 mi North 8.1 mph - N/A   Mostly Cloudy
12:32 PM 30.2 °F 22.6 °F 25.3 °F 82% 29.58 in 10.0 mi North 8.1 mph - N/A   Mostly Cloudy
12:51 PM 30.6 °F 23.1 °F 25.2 °F 80% 29.58 in 10.0 mi North 8.1 mph - N/A   Mostly Cloudy
1:11 PM 30.7 °F 22.6 °F 25.2 °F 80% 29.59 in 10.0 mi NNE 9.2 mph - N/A   Mostly Cloudy
1:32 PM 31.1 °F 24.5 °F 25.0 °F 78% 29.59 in 10.0 mi NNE 6.9 mph - N/A   Mostly Cloudy
1:52 PM 31.1 °F 26.4 °F 25.0 °F 78% 29.59 in 10.0 mi North 4.6 mph - N/A   Clear
2:12 PM 31.5 °F 24.2 °F 25.2 °F 78% 29.59 in 10.0 mi NNE 8.1 mph - N/A   Clear
2:32 PM 31.5 °F 25.8 °F 24.8 °F 76% 29.59 in 10.0 mi North 5.8 mph - N/A   Clear
2:51 PM 31.5 °F 24.2 °F 25.0 °F 77% 29.60 in 10.0 mi North 8.1 mph - N/A   Clear
3:12 PM 31.6 °F 28.3 °F 25.0 °F 76% 29.60 in 10.0 mi North 3.5 mph - N/A   Clear
3:32 PM 31.6 °F 26.0 °F 24.3 °F 74% 29.61 in 10.0 mi North 5.8 mph - N/A   Clear
3:51 PM 31.8 °F 26.2 °F 23.2 °F 70% 29.61 in 10.0 mi NNW 5.8 mph - N/A   Scattered Clouds
4:12 PM 31.6 °F 26.0 °F 23.0 °F 70% 29.62 in 10.0 mi NNW 5.8 mph - N/A   Mostly Cloudy
4:32 PM 31.3 °F 25.6 °F 23.9 °F 74% 29.63 in 10.0 mi NNW 5.8 mph - N/A   Scattered Clouds
4:51 PM 31.1 °F 26.4 °F 24.3 °F 76% 29.64 in 10.0 mi NW 4.6 mph - N/A   Clear
5:12 PM 30.7 °F - 24.3 °F 77% 29.65 in 10.0 mi Calm Calm - N/A   Scattered Clouds
5:32 PM 30.4 °F - 24.3 °F 78% 29.65 in 10.0 mi Calm Calm - N/A   Clear
5:52 PM 30.0 °F - 24.3 °F 79% 29.66 in 10.0 mi Calm Calm - N/A   Clear
6:12 PM 29.1 °F - 24.1 °F 81% 29.66 in 10.0 mi Calm Calm - N/A   Clear
6:31 PM 29.1 °F - 24.4 °F 83% 29.67 in 10.0 mi Calm Calm - N/A   Mostly Cloudy
6:51 PM 28.8 °F - 23.9 °F 82% 29.67 in 10.0 mi Calm Calm - N/A   Scattered Clouds
7:12 PM 28.2 °F - 23.9 °F 84% 29.67 in 10.0 mi Calm Calm - N/A   Clear
7:32 PM 26.2 °F - 23.2 °F 88% 29.67 in 10.0 mi Calm Calm - N/A   Clear
7:52 PM 25.7 °F 21.5 °F 23.0 °F 89% 29.67 in 10.0 mi West 3.5 mph - N/A   Clear
8:12 PM 25.5 °F 19.9 °F 22.8 °F 89% 29.67 in 10.0 mi West 4.6 mph - N/A   Mostly Cloudy
8:31 PM 25.7 °F - 23.4 °F 91% 29.68 in 10.0 mi Calm Calm - N/A   Overcast
8:52 PM 27.1 °F 21.8 °F 23.7 °F 87% 29.69 in 10.0 mi West 4.6 mph - N/A   Overcast
9:12 PM 27.5 °F 21.1 °F 24.1 °F 87% 29.70 in 10.0 mi West 5.8 mph - N/A   Overcast
9:32 PM 27.5 °F 22.2 °F 24.4 °F 88% 29.70 in 10.0 mi West 4.6 mph - N/A   Overcast
9:52 PM 28.4 °F 23.3 °F 25.7 °F 90% 29.71 in 3.0 mi WNW 4.6 mph - N/A Snow Light Snow
10:11 PM 28.4 °F 24.6 °F 27.0 °F 94% 29.71 in 1.8 mi WNW 3.5 mph - N/A Snow Light Snow
10:32 PM 28.4 °F 24.6 °F 27.3 °F 96% 29.71 in 1.8 mi West 3.5 mph - N/A Snow Light Snow
10:52 PM 28.4 °F 24.6 °F 27.5 °F 96% 29.71 in 1.8 mi West 3.5 mph - N/A Snow Light Snow
11:11 PM 28.4 °F 22.2 °F 27.5 °F 96% 29.71 in 3.0 mi West 5.8 mph - N/A Snow Light Snow
11:32 PM 29.1 °F 23.0 °F 27.3 °F 93% 29.71 in 5.0 mi WNW 5.8 mph - N/A   Overcast
11:52 PM 29.1 °F 21.3 °F 26.6 °F 90% 29.71 in 7.0 mi WNW 8.1 mph - N/A   Overcast